SURFSAT (43614 NORAD) Tracking and Keplerian Element Data

This shows tracking and keplerian element data for the satellite.

Feedback or suggestion? Click here.




ElementValue
Catalog43614
NameSURFSAT
Epoch Orbit23553
Epoch Day325.20734392
Epoch Year2022
RAAN165.7856
Inclination93.0023
Eccentricity0.0009033
Argument of Perigee97.2885
Mean Anonmoly262.9415
Mean Motion15.73860421
Decay Rate0.00108647
L11 43614U 18070B 22325.20734392 .00108647 00000+0 76097-3 0 9995
L22 43614 93.0023 165.7856 0009033 97.2885 262.9415 15.73860421235533



Live tracking and technical data element details for SURFSAT (NORAD 43614). SURFSAT can be tracked NOW for your location showing map with azimuth and elevation plus other details from your city location.







IsCatalogInMostPopularTable: catalog: 43614, numindb: 478
Update: records affected: 1



GetName: 43614 SURFSAT

Hit Count: updated at: Fri, 02 Dec 2022 14:01:36 GMT